Location: Anumalkud?ru
(16.4847°N, 80.6636°E)
Time: 08:57:05
(UTC+00:00)

Centaur D-1AR AC-46 - Pass Details

Date: 11 April 2026
Orbit: 662 x 36245 km, 21.9° (Epoch: 11 May)

Event Time Altitude Azimuth Distance (km) Brightness Sun altitude
Rises 14:14:57 0° 285° (WNW) 4,426 10.0 -20.3°
Reaches altitude 10° 14:18:29 10° 285° (WNW) 2,618 8.4 -21.1°
Maximum altitude 14:23:08 88° 194° (SSW) 662 4.1 -22.1°
Enters shadow 14:23:42 63° 110° (ESE) 729 4.0 -22.3°
